Погода в Ярышеве

Украина / Винницкая область     48°30′42″N   27°37′54″E
темп.,
°C
ветер,
м/с
пор.,
м/с
влажн.,
%
обл.,
%
осадки,
мм/ч
давл.,
гПа
погр.,
м
18 апреля, вс
вс1800:00+4ссв2284100 0.0 102017
03:00+3ссв229116 0.0 102016
06:00+2ссв11925 0.0 102010
09:00+6ссв127562 0.0 1019298
12:00+11ссз1258100 0.0 1018993
15:00+13ссз2250100 0.0 10171538
18:00+13с1248100 0.0 10171516
21:00+11ю1158100 0.0 101710
19 апреля, пн
пн1900:00+9юз1163100 0.0 101710
03:00+9ююз2267100 0.0 101740
06:00+7з1178100 0.0 101615
09:00+9ю117092 0.0 1017316
12:00+13всв225873 0.1 10161306
15:00+12в5567100 0.9 1016961
18:00+11всв3576100 0.5 1015439
21:00+9всв3679100 0.6 1014206
20 апреля, вт
вт2000:00+8св378099 0.0 1013189
03:00+7св388186 0.0 1012214
06:00+5ссв4108486 0.0 1011209
09:00+9ссв5972100 0.1 1011486
12:00+12с675198 0.1 10101870
15:00+12с6754100 0.5 10091483
18:00+12с475899 0.8 10091009
21:00+8с347688 0.9 101167
21 апреля, ср
ср2100:00+6ссз22815 0.0 101218
03:00+5сз22865 0.0 101312
06:00+4ссз118913 0.0 101411
09:00+8зсз127366 0.0 1015327
12:00+12зюз235777 0.1 10141169
15:00+14зюз3547100 0.4 10141788
18:00+14юз455194 0.0 1014835
21:00+11ююз346899 0.3 101563
22 апреля, чт
чт2200:00+9юз228281 0.8 101640
03:00+8зюз118290 0.8 101610
06:00+7сз118299 0.0 101710
09:00+11ююз227066 0.0 1017281
12:00+15юз455218 0.0 10171558
15:00+16юз674399 0.0 10152331
18:00+16ю46476 0.0 10141692
21:00+11сз347870 0.9 101597